TimePST,TemperatureF,Dew PointF,Humidity,Sea Level PressureIn,VisibilityMPH,Wind Direction,Wind SpeedMPH,Gust SpeedMPH,PrecipitationIn,Events,Conditions,WindDirDegrees,DateUTC
12:56 AM,54.0,11.1,18,30.26,10.0,SE,10.4,16.1,N/A,,Clear,140,2012-11-12 08:56:00
1:56 AM,54.0,10.0,17,30.26,10.0,ESE,8.1,-,N/A,,Clear,120,2012-11-12 09:56:00
2:56 AM,52.9,9.1,17,30.26,10.0,ESE,10.4,-,N/A,,Clear,110,2012-11-12 10:56:00
3:56 AM,48.9,11.1,22,30.24,10.0,SE,11.5,-,N/A,,Clear,130,2012-11-12 11:56:00
4:56 AM,54.0,9.1,17,30.24,10.0,ESE,13.8,19.6,N/A,,Clear,120,2012-11-12 12:56:00
5:56 AM,54.9,9.1,16,30.25,10.0,SE,10.4,-,N/A,,Clear,140,2012-11-12 13:56:00
6:56 AM,55.9,9.1,15,30.27,10.0,SE,13.8,18.4,N/A,,Clear,140,2012-11-12 14:56:00
7:56 AM,59.0,10.0,14,30.27,10.0,SE,12.7,18.4,N/A,,Clear,130,2012-11-12 15:56:00
8:56 AM,61.9,10.0,13,30.26,10.0,SE,12.7,20.7,N/A,,Clear,130,2012-11-12 16:56:00
9:56 AM,65.8,8.1,10,30.22,10.0,ESE,16.1,20.7,N/A,,Clear,120,2012-11-12 17:56:00
10:56 AM,68.9,6.1,9,30.19,10.0,SE,11.5,19.6,N/A,,Clear,140,2012-11-12 18:56:00
11:56 AM,72.9,-0.9,5,30.14,10.0,ESE,13.8,24.2,N/A,,Clear,120,2012-11-12 19:56:00
12:56 PM,74.8,-4.0,4,30.13,10.0,East,13.8,-,N/A,,Clear,100,2012-11-12 20:56:00
1:56 PM,74.8,-8.0,4,30.12,10.0,ESE,16.1,20.7,N/A,,Clear,120,2012-11-12 21:56:00
2:56 PM,75.9,-4.0,4,30.10,10.0,East,10.4,18.4,N/A,,Clear,100,2012-11-12 22:56:00
3:56 PM,73.9,4.1,7,30.09,10.0,East,5.8,-,N/A,,Clear,100,2012-11-12 23:56:00
4:56 PM,61.9,24.1,24,30.10,10.0,Calm,Calm,-,N/A,,Clear,0,2012-11-13 00:56:00
5:56 PM,65.8,6.1,10,30.11,10.0,SE,6.9,-,N/A,,Clear,140,2012-11-13 01:56:00
6:56 PM,63.9,8.1,11,30.14,10.0,SE,6.9,-,N/A,,Clear,140,2012-11-13 02:56:00
7:56 PM,61.0,7.2,12,30.15,10.0,SE,8.1,-,N/A,,Clear,130,2012-11-13 03:56:00
8:56 PM,63.0,7.2,11,30.16,10.0,SE,9.2,-,N/A,,Clear,140,2012-11-13 04:56:00
9:56 PM,63.9,2.1,9,30.16,10.0,SE,6.9,-,N/A,,Clear,140,2012-11-13 05:56:00
10:56 PM,54.9,10.0,17,30.16,10.0,SE,4.6,-,N/A,,Clear,130,2012-11-13 06:56:00
11:56 PM,52.9,11.1,19,30.13,10.0,ESE,9.2,-,N/A,,Clear,110,2012-11-13 07:56:00